Details for Ryanair at LPPT




Go Back


Latest METAR
Local Time

LPPT 252200Z 31003KT 9999 FEW015 15/13 Q1013

25/05/2018, 23:16:50

Description
Results
Ryanair Logo
Number of Pilots based at LPPT
0 Pilots Based here
Number of Ryanair Flights Departed from LPPT
4 Flights Departed
Number of Ryanair Flights Arrived at LPPT
3 Flights Arrived
Number of Ryanair Schedules Departing from LPPT
94 Schedules
Number of Ryanair Schedules Arriving at LPPT
96 Schedules
Number of Ryanair Schedules Departing from LPPT availible today
28 Schedules Today
Number of Ryanair Schedules Arriving at LPPT availible today
28 Schedules Today
Average Landing Rate at LPPT
-226 fpm
Ryanair Average Landing Rate at LPPT
-397 fpm
Total Fuel Purchased at LPPT by Ryanair
21,883.56 kgs / 48,244.50 lbs

Pilots Based at LPPT


Pilot ID
Pilot Name
Pilot Rank
No. of Flights
No. of Flying Hours
There are no pilots assigned to this hub!   Will you be the first?
Content